Audubon, IA

9:06 AM CDT on April 30, 2017 (GMT -0500)
Audubon County

Weather History for KADU - November, 2013

Change the Weather History Date:

Wednesday, November 20, 2013

  Actual Average Record
Temperature  
Mean Temperature 39 °F -  
Max Temperature 48 °F 45 °F 69 °F (2003)
Min Temperature 30 °F 25 °F 3 °F (1950)
Degree Days  
Heating Degree Days 26    
Moisture  
Dew Point 28 °F    
Average Humidity 59    
Maximum Humidity 86    
Minimum Humidity 32    
Precipitation  
Precipitation 0.00 in - - ()
Sea Level Pressure  
Sea Level Pressure 29.89 in    
Wind  
Wind Speed 14 mph (SSE)    
Max Wind Speed 21 mph    
Max Gust Speed 31 mph    
Visibility 10 miles    
Events      
Averages and records for this station are not official NWS values.
T = Trace of Precipitation, MM = Missing Value Source: NWS Daily Summary

Daily Weather History Graph

Daily Weather History Graph

Search for Another Location

Airport or City:

Trip Planner

Search our weather history database for the weather conditions in past years. The results will help you decide how hot, cold, wet, or windy it might be!

Date:

Astronomy

Nov. 20, 2013 Rise Set
Actual Time 7:15 AM CST 4:55 PM CST
Civil Twilight 6:44 AM CST 5:25 PM CST
Nautical Twilight 6:10 AM CST 5:59 PM CST
Astronomical Twilight 5:37 AM CST 6:32 PM CST
Moon 7:38 PM CST (11/20) 9:41 AM CST (11/20)
Length of Visible Light 10h 40m
Length of Day
9h 40m
Waning Gibbous, 91% of the Moon is Illuminated
Nov 20
Waning Gibbous
Nov 25
Last Quarter
Dec 2
New
Dec 9
First Quarter
Dec 17
Full

Hourly Weather History & Observations

Time (CST) Temp. Windchill Dew Point Humidity Pressure Visibility Wind Dir Wind Speed Gust Speed Precip Events Conditions
12:15 AM 48.2 °F - 19.4 °F 32% 29.93 in 10.0 mi South 19.6 mph 25.3 mph N/A   Overcast
12:35 AM 48.2 °F - 19.4 °F 32% 29.92 in 10.0 mi South 16.1 mph 25.3 mph N/A   Overcast
12:55 AM 48.2 °F - 19.4 °F 32% 29.92 in 10.0 mi South 15.0 mph 25.3 mph N/A   Overcast
1:15 AM 48.2 °F - 19.4 °F 32% 29.92 in 10.0 mi South 15.0 mph 21.9 mph N/A   Overcast
1:35 AM 48.2 °F - 19.4 °F 32% 29.91 in 10.0 mi South 16.1 mph 23.0 mph N/A   Mostly Cloudy
1:55 AM 48.2 °F - 19.4 °F 32% 29.91 in 10.0 mi South 15.0 mph 21.9 mph N/A   Scattered Clouds
2:15 AM 48.2 °F - 21.2 °F 34% 29.91 in 10.0 mi South 16.1 mph 20.7 mph N/A   Mostly Cloudy
2:35 AM 48.2 °F - 19.4 °F 32% 29.91 in 10.0 mi SSE 13.8 mph 20.7 mph N/A   Overcast
2:55 AM 48.2 °F - 19.4 °F 32% 29.90 in 10.0 mi SSE 16.1 mph 25.3 mph N/A   Overcast
3:15 AM 48.2 °F - 21.2 °F 34% 29.90 in 10.0 mi SSE 12.7 mph 19.6 mph N/A   Overcast
3:35 AM 48.2 °F - 21.2 °F 34% 29.90 in 10.0 mi South 12.7 mph 21.9 mph N/A   Overcast
3:55 AM 48.2 °F - 23.0 °F 37% 29.89 in 10.0 mi South 18.4 mph 27.6 mph N/A   Overcast
4:15 AM 46.4 °F 39.8 °F 26.6 °F 46% 29.89 in 10.0 mi South 16.1 mph 27.6 mph N/A   Overcast
4:35 AM 44.6 °F 37.2 °F 26.6 °F 49% 29.88 in 10.0 mi SSE 17.3 mph 24.2 mph N/A   Mostly Cloudy
4:55 AM 44.6 °F 36.4 °F 28.4 °F 53% 29.88 in 10.0 mi South 20.7 mph 28.8 mph N/A   Mostly Cloudy
5:15 AM 42.8 °F 35.4 °F 28.4 °F 57% 29.88 in 10.0 mi SSE 15.0 mph 20.7 mph N/A   Mostly Cloudy
5:35 AM 42.8 °F 35.8 °F 28.4 °F 57% 29.87 in 10.0 mi SSE 13.8 mph 21.9 mph N/A   Mostly Cloudy
5:55 AM 42.8 °F 34.5 °F 28.4 °F 57% 29.87 in 10.0 mi SSE 18.4 mph 23.0 mph N/A   Scattered Clouds
6:15 AM 42.8 °F 34.8 °F 28.4 °F 57% 29.87 in 10.0 mi SSE 17.3 mph 24.2 mph N/A   Clear
6:35 AM 42.8 °F 34.5 °F 28.4 °F 57% 29.88 in 10.0 mi SSE 18.4 mph 24.2 mph N/A   Clear
6:55 AM 42.8 °F 35.8 °F 28.4 °F 57% 29.88 in 10.0 mi SSE 13.8 mph 21.9 mph N/A   Clear
7:15 AM 42.8 °F 35.4 °F 28.4 °F 57% 29.89 in 10.0 mi SSE 15.0 mph 23.0 mph N/A   Clear
7:35 AM 42.8 °F 35.1 °F 28.4 °F 57% 29.89 in 10.0 mi South 16.1 mph 20.7 mph N/A   Clear
7:55 AM 42.8 °F 35.8 °F 28.4 °F 57% 29.89 in 10.0 mi SSE 13.8 mph 20.7 mph N/A   Scattered Clouds
8:15 AM 42.8 °F 35.4 °F 28.4 °F 57% 29.89 in 10.0 mi South 15.0 mph 23.0 mph N/A   Mostly Cloudy
8:35 AM 42.8 °F 34.8 °F 28.4 °F 57% 29.89 in 10.0 mi South 17.3 mph 25.3 mph N/A   Scattered Clouds
8:55 AM 42.8 °F 34.8 °F 30.2 °F 61% 29.89 in 10.0 mi South 17.3 mph 23.0 mph N/A   Clear
9:15 AM 44.6 °F 37.4 °F 30.2 °F 57% 29.89 in 10.0 mi South 16.1 mph 25.3 mph N/A   Clear
9:35 AM 44.6 °F 37.4 °F 30.2 °F 57% 29.89 in 10.0 mi SSE 16.1 mph 25.3 mph N/A   Clear
9:55 AM 44.6 °F 36.6 °F 30.2 °F 57% 29.89 in 10.0 mi South 19.6 mph 31.1 mph N/A   Clear
10:15 AM 44.6 °F 37.4 °F 30.2 °F 57% 29.89 in 10.0 mi South 16.1 mph 27.6 mph N/A   Clear
10:35 AM 46.4 °F 39.5 °F 30.2 °F 53% 29.89 in 10.0 mi South 17.3 mph 28.8 mph N/A   Clear
10:55 AM 46.4 °F 38.7 °F 30.2 °F 53% 29.89 in 10.0 mi SSE 20.7 mph 26.5 mph N/A   Clear
11:15 AM 46.4 °F 40.4 °F 30.2 °F 53% 29.88 in 10.0 mi South 13.8 mph 25.3 mph N/A   Clear
11:35 AM 46.4 °F 40.1 °F 30.2 °F 53% 29.88 in 10.0 mi SSE 15.0 mph 24.2 mph N/A   Clear
11:55 AM 46.4 °F 39.5 °F 32.0 °F 57% 29.87 in 10.0 mi SSE 17.3 mph - N/A   Clear
12:15 PM 48.2 °F - 32.0 °F 54% 29.86 in 10.0 mi South 19.6 mph 23.0 mph N/A   Clear
12:35 PM 46.4 °F 40.4 °F 30.2 °F 53% 29.85 in 10.0 mi South 13.8 mph 26.5 mph N/A   Clear
12:55 PM 48.2 °F - 32.0 °F 54% 29.84 in 10.0 mi South 18.4 mph 24.2 mph N/A   Clear
1:15 PM 48.2 °F - 30.2 °F 50% 29.84 in 10.0 mi South 19.6 mph 23.0 mph N/A   Clear
1:35 PM 48.2 °F - 32.0 °F 54% 29.83 in 10.0 mi South 15.0 mph 23.0 mph N/A   Clear
1:55 PM 48.2 °F - 30.2 °F 50% 29.83 in 10.0 mi South 13.8 mph 19.6 mph N/A   Clear
2:15 PM 48.2 °F - 33.8 °F 58% 29.83 in 10.0 mi South 13.8 mph 24.2 mph N/A   Clear
2:35 PM 46.4 °F 41.1 °F 33.8 °F 62% 29.83 in 10.0 mi South 11.5 mph - N/A   Scattered Clouds
2:55 PM 46.4 °F 41.1 °F 33.8 °F 62% 29.82 in 10.0 mi South 11.5 mph 18.4 mph N/A   Clear
3:15 PM 46.4 °F 41.1 °F 33.8 °F 62% 29.82 in 10.0 mi South 11.5 mph 19.6 mph N/A   Clear
3:35 PM 46.4 °F 41.5 °F 33.8 °F 62% 29.83 in 10.0 mi South 10.4 mph - N/A   Clear
3:55 PM 46.4 °F 41.9 °F 33.8 °F 62% 29.84 in 10.0 mi South 9.2 mph - N/A   Clear
4:15 PM 46.4 °F 41.5 °F 33.8 °F 62% 29.85 in 10.0 mi SSE 10.4 mph - N/A   Clear
4:35 PM 44.6 °F 40.7 °F 33.8 °F 66% 29.85 in 10.0 mi SSE 6.9 mph - N/A   Clear
4:55 PM 42.8 °F 40.1 °F 33.8 °F 70% 29.86 in 10.0 mi South 4.6 mph - N/A   Clear
5:15 PM 39.2 °F - 32.0 °F 75% 29.87 in 10.0 mi Calm Calm - N/A   Clear
5:35 PM 39.2 °F - 32.0 °F 75% 29.88 in 10.0 mi Calm Calm - N/A   Clear
5:55 PM 37.4 °F 34.9 °F 30.2 °F 75% 29.89 in 10.0 mi SE 3.5 mph - N/A   Clear
6:15 PM 37.4 °F 33.8 °F 32.0 °F 81% 29.89 in 10.0 mi SE 4.6 mph - N/A   Clear
6:35 PM 37.4 °F 33.8 °F 32.0 °F 81% 29.90 in 10.0 mi SSE 4.6 mph - N/A   Clear
6:55 PM 37.4 °F 34.9 °F 30.2 °F 75% 29.90 in 10.0 mi SE 3.5 mph - N/A   Clear
7:15 PM 37.4 °F 34.9 °F 30.2 °F 75% 29.91 in 10.0 mi SSE 3.5 mph - N/A   Clear
7:35 PM 35.6 °F - 30.2 °F 81% 29.91 in 10.0 mi Calm Calm - N/A   Clear
7:55 PM 35.6 °F - 30.2 °F 81% 29.91 in 10.0 mi Calm Calm - N/A   Clear
8:15 PM 35.6 °F 32.8 °F 30.2 °F 81% 29.92 in 10.0 mi SSE 3.5 mph - N/A   Clear
8:35 PM 35.6 °F - 30.2 °F 81% 29.92 in 10.0 mi Calm Calm - N/A   Clear
8:55 PM 35.6 °F - 30.2 °F 81% 29.93 in 10.0 mi Calm Calm - N/A   Clear
9:15 PM 35.6 °F - 28.4 °F 75% 29.94 in 10.0 mi Calm Calm - N/A   Clear
9:35 PM 35.6 °F - 30.2 °F 81% 29.94 in 10.0 mi Calm Calm - N/A   Clear
9:55 PM 33.8 °F - 28.4 °F 81% 29.94 in 10.0 mi Calm Calm - N/A   Clear
10:15 PM 35.6 °F - 30.2 °F 81% 29.95 in 10.0 mi Calm Calm - N/A   Clear
10:35 PM 33.8 °F - 28.4 °F 81% 29.95 in 10.0 mi Calm Calm - N/A   Clear
10:55 PM 32.0 °F - 26.6 °F 80% 29.95 in 7.0 mi Calm Calm - N/A   Clear
11:15 PM 32.0 °F - 26.6 °F 80% 29.96 in 7.0 mi Calm Calm - N/A   Clear
11:35 PM 30.2 °F - 26.6 °F 86% 29.97 in 7.0 mi Calm Calm - N/A   Clear
11:55 PM 32.0 °F - 26.6 °F 80% 29.97 in 7.0 mi Calm Calm - N/A   Clear